Regional Weather Roundup
Issued by NWS

Home | Current Version | Previous Version | Graphics & Text | Print | Product List | Glossary Off
Versions: 1 2 3 4 5 6 7 8 9 10 11 12 13 14 15 16 17 18 19 20 21 22 23 24 25 26 27 28 29 30 31 32 33 34 35 36 37 38 39 40 41 42 43 44 45 46 47 48 49 50

000
ASUS43 KLOT 281203
RWRIL

ILLINOIS REGIONAL WEATHER ROUNDUP
NATIONAL WEATHER SERVICE CHICAGO/ROMEOVILLE IL
700 AM CDT SAT MAY 28 2016

NOTE: "FAIR" INDICATES FEW OR NO CLOUDS BELOW 12,000 FEET WITH NO
SIGNIFICANT WEATHER AND/OR OBSTRUCTIONS TO VISIBILITY.

* THESE STATIONS ARE NOT UNDER NWS QUALITY CONTROL. THEY ALSO MAY NOT
  REPORT WEATHER SUCH AS PRECIPITATION OR FOG.

ILZ001-002-007-009-015-016-024-281300-
NORTHWEST ILLINOIS

CITY           SKY/WX    TMP DP  RH WIND       PRES   REMARKS
MOLINE         CLOUDY    70  65  84 S9        29.80R
6HR MIN TEMP:  69; 6HR MAX TEMP:  71;

STERLING*      PTSUNNY   70  67  90 VRB5      29.83R
$$

ILZ003-004-008-010-011-017-018-281300-
NORTH CENTRAL ILLINOIS

CITY           SKY/WX    TMP DP  RH WIND       PRES   REMARKS
ROCKFORD       CLOUDY    70  66  87 S17       29.85R
6HR MIN TEMP:  69; 6HR MAX TEMP:  70; 6HR PCP: TRACE;

FREEPORT*      CLOUDY    68  65  90 S15G23    29.82S
ROCHELLE*      CLOUDY    70  66  88 S20       29.85R
$$

ILZ005-006-012>014-019>023-281300-
NORTHEAST ILLINOIS

CITY           SKY/WX    TMP DP  RH WIND       PRES   REMARKS
CHICAGO-OHARE  CLOUDY    70  65  84 S13G22    29.87R
6HR MIN TEMP:  68; 6HR MAX TEMP:  71; 6HR PCP: TRACE;

CHICAGO-MIDWAY CLOUDY    73  64  73 S14G23    29.88R
6HR MIN TEMP:  70; 6HR MAX TEMP:  73; 6HR PCP: TRACE;

AURORA         PTSUNNY   71  66  84 S15       29.87R
6HR MIN TEMP:  69; 6HR MAX TEMP:  71;

LANSING*       CLOUDY    72  64  76 S20G29    29.90S
WAUKEGAN       CLOUDY    67  63  87 SE6       29.85S
6HR MIN TEMP:  63; 6HR MAX TEMP:  69;

DUPAGE AIRPORT CLOUDY    70  64  81 S18G25    29.87R
6HR MIN TEMP:  68; 6HR MAX TEMP:  71; 6HR PCP: TRACE;

WHEELING       CLOUDY    71  64  78 S17G25    29.88R
6HR MIN TEMP:  68; 6HR MAX TEMP:  71;

NORTHERLY ISL    N/A     72  62  71 S18         N/A
NORTHERLY ISL    N/A     72  62  71 S18         N/A
$$

LMZ740>746-281300-
SOUTHERN LAKE MICHIGAN

STATION/POSITION SKY/WX   TEMP    WIND        PRES    VSBY  WAVE
                          AIR SEA DIR/SP/G                  HT/PER
                          (F)     (DEG/KT/KT) (MB)    (MI)  (FT/S)
SOUTHERN BUOY              56 50  130/ 12/ 14 1011.3          1/ 3
WILMETTE HARBOR            61 53  180/ 10/ 16   N/A           1/ 2
HARRISON CRIB              71     200/ 21/ 23   N/A
BURNHAM HARBOR             72     190/ 16/ 20   N/A
CALUMET HARBOR             72     180/ 12/ 20 1011.2R
BURNS HARBOR               71     190/ 10/ 19 1012.9R
MICHIGAN CITY              72     160/ 12/ 16   N/A
MICHIGAN CITY 6N           69 58  190/ 14/ 17   N/A           1/ 2
ST. JOSEPH                 69 61  150/ 12/ 14   N/A           1/ 3
$$

ILZ025>027-034>036-040-047-049-050-058-095>099-281300-
WEST-CENTRAL ILLINOIS

CITY           SKY/WX    TMP DP  RH WIND       PRES   REMARKS
QUINCY         CLOUDY    68  65  90 S10       29.84R
MACOMB*        CLOUDY    68  66  93 S13       29.85S
PITTSFIELD*    CLOUDY    68  66  92 S10       29.87R
$$

ILZ028>032-037-038-041>044-048-051>054-059>061-281300-
CENTRAL ILLINOIS

CITY           SKY/WX    TMP DP  RH WIND       PRES   REMARKS
BLOOMINGTON    PTSUNNY   69  68  97 S16       29.91R
DECATUR        CLOUDY    70  65  84 S15       29.90F
PEORIA         CLOUDY    70  64  81 S17       29.86R
6HR MIN TEMP:  69; 6HR MAX TEMP:  70; 6HR PCP: TRACE;

SPRINGFIELD    CLOUDY    70  65  84 S12       29.88R
6HR MIN TEMP:  70; 6HR MAX TEMP:  73;

TAYLORVILLE    NOT AVBL
$$

ILZ033-039-045-046-055>057-062-063-281300-
EAST-CENTRAL ILLINOIS

CITY           SKY/WX    TMP DP  RH WIND       PRES   REMARKS
CHAMPAIGN      MOSUNNY   70  65  84 S16       29.93S
MATTOON        CLOUDY    70  64  81 S8        29.94S
$$

ILZ079-100>102-281300-
SOUTHWEST ILLINOIS

CITY           SKY/WX    TMP DP  RH WIND       PRES   REMARKS
ALTON          PTSUNNY   66  64  94 S12       29.90S
CAHOKIA*       CLOUDY    69  64  84 S6        29.90R
SPARTA*        LGT RAIN  67  64  90 S9        29.94R
$$

ILZ064>066-069>071-074>076-080>082-084>086-088>090-092>094-281300-
SOUTH-CENTRAL ILLINOIS

CITY           SKY/WX    TMP DP  RH WIND       PRES   REMARKS
CARBONDALE     CLOUDY    69  64  84 S7        29.96R
6HR MIN TEMP:  68; 6HR MAX TEMP:  70; 6HR PCP: TRACE;

MARION         CLOUDY    72  66  83 S12       29.97R
MT. VERNON     CLOUDY    70  63  78 S6        29.96S
SALEM*         CLOUDY    70  65  84 SE6       29.94S
$$

ILZ067-068-072-073-078-083-087-091-281300-
SOUTHEAST ILLINOIS

CITY           SKY/WX    TMP DP  RH WIND       PRES   REMARKS
LAWRENCEVILLE  CLOUDY    72  67  84 S8        29.99R
FLORA*         CLOUDY    70  67  89 S7        29.96R
HARRISBURG*    CLOUDY    70  67  89 SE7       29.98R
ROBINSON*      CLOUDY    70  66  86 S7        29.99R
$$

ABBREVIATIONS USED IN REMARKS
   TC - TEMPERATURE IN CELSIUS
  WCI - WIND CHILL INDEX
   HX - HEAT INDEX
  VSB - VISIBILITY
$$





USA.gov is the U.S. government's official web portal to all federal, state and local government web resources and services.